Regional Weather Roundup
Issued by NWS

Home | Current Version | Previous Version | Text Only | Print | Product List | Glossary Off
Versions: 1 2 3 4 5 6 7 8 9 10 11 12 13 14 15 16 17 18 19 20 21 22 23 24 25 26 27 28 29 30 31 32 33 34 35 36 37 38 39 40 41 42 43 44 45 46 47 48 49 50

363
ASUS43 KLSX 211907
RWRMO

WEATHER SUMMARY FOR MISSOURI
NATIONAL WEATHER SERVICE SPRINGFIELD MO
200 PM CDT SAT OCT 21 2017

NOTE: "FAIR" INDICATES FEW OR NO CLOUDS BELOW 12,000 FEET WITH NO
       SIGNIFICANT WEATHER AND/OR OBSTRUCTIONS TO VISIBILITY.
       CURRENT SKY AND/OR WEATHER CONDITIONS ARE NOT AVAILABLE FOR
       CHILLICOTHE AND FARMINGTON.

MOZ001>031-035>038-043-044-053-054-212000-
...NORTHERN AND WESTERN MISSOURI...

CITY           SKY/WX    TMP DP  RH WIND       PRES   REMARKS
KANSAS CTY INT CLOUDY    73  63  70 SW23G30   29.81R
KANSAS C DTWN  CLOUDY    76  65  68 S13       29.81F
LEE`S SUMMIT   CLOUDY    76  64  66 S25G31    29.83F
ST JOSEPH      LGT RAIN  70  65  84 S12G23    29.79S
CHILLICOTHE      N/A     78  64  61 S18G25    29.82F
KIRKSVILLE     SUNNY     80  64  58 S15G28    29.86F

$$
MOZ066>068-077>081-088>096-101>105-212000-
...SOUTHWEST MISSOURI...

CITY           SKY/WX    TMP DP  RH WIND       PRES   REMARKS
SPRINGFIELD    MOSUNNY   78  64  61 SE17G26   29.91F
JOPLIN         PTSUNNY   79  64  60 S22G29    29.87F
BRANSON        PTSUNNY   77  61  57 S13G21    29.98F

$$
MOZ032>034-039>042-045>050-055>058-069>072-212000-
...CENTRAL MISSOURI...

CITY           SKY/WX    TMP DP  RH WIND       PRES   REMARKS
COLUMBIA       MOSUNNY   78  63  59 S20G26    29.91F
JEFFERSON CITY PTSUNNY   79  61  53 S15G23    29.92F
ROLLA          PTSUNNY   75  62  64 S21G32    29.98F
SEDALIA        MOSUNNY   80  63  55 S20G29    29.89F
WHITEMAN AFB   PTSUNNY   78  64  60 S24G31    29.82F
WARRENSBURG    CLOUDY    77  61  57 S17G24    29.85S
OSAGE BEACH    PTSUNNY   77  64  64 S13G20    29.94F

$$
MOZ051-052-059>065-212000-
...EAST CENTRAL MISSOURI...

CITY           SKY/WX    TMP DP  RH WIND       PRES   REMARKS
ST LOUIS INTL  CLOUDY    75  62  64 S15G22    30.00F
SPIRIT OF STL  MOSUNNY   76  64  66 SE7       29.98F
ST CHARLES     MOSUNNY   75  63  66 S13       29.98F

$$
MOZ072>076-082>087-097>100-106>115-212000-
...SOUTH CENTRAL AND SOUTHEAST MISSOURI...

CITY           SKY/WX    TMP DP  RH WIND       PRES   REMARKS
CAPE GIRARDEAU MOSUNNY   81  56  42 S15G23    30.06F
FARMINGTON     PTSUNNY   77  62  59 S14G21    30.04F
POPLAR BLUFF   PTSUNNY   81  61  50 S15G23    30.04F
WEST PLAINS    CLOUDY    75  64  68 S15G23    30.03F

$$



USA.gov is the U.S. government's official web portal to all federal, state and local government web resources and services.